Time,TemperatureF,DewpointF,PressureIn,WindDirection,WindDirectionDegrees,WindSpeedMPH,WindSpeedGustMPH,Humidity,HourlyPrecipIn,Conditions,Clouds,dailyrainin,SoftwareType,DateUTC
2013-03-16 00:02:00,31.9,31.1,29.82,NNW,334,7.0,13.0,97,0.00,,,0.00,Wunderground v.1.15,2013-03-16 05:02:00,
2013-03-16 00:07:00,31.8,31.0,29.82,NNW,348,10.0,13.0,97,0.00,,,0.00,Wunderground v.1.15,2013-03-16 05:07:00,
2013-03-16 00:12:00,31.8,31.3,29.82,NNW,336,10.0,11.0,98,0.00,,,0.00,Wunderground v.1.15,2013-03-16 05:12:00,
2013-03-16 00:17:00,31.8,31.3,29.82,North,350,6.0,11.0,98,0.00,,,0.00,Wunderground v.1.15,2013-03-16 05:17:00,
2013-03-16 00:22:00,31.8,31.3,29.82,NNW,342,7.0,9.0,98,0.00,,,0.00,Wunderground v.1.15,2013-03-16 05:22:00,
2013-03-16 00:28:00,31.8,31.3,29.82,North,360,4.0,9.0,98,0.00,,,0.00,Wunderground v.1.15,2013-03-16 05:28:00,
2013-03-16 00:34:00,31.8,31.3,29.82,NNW,337,7.0,12.0,98,0.00,,,0.00,Wunderground v.1.15,2013-03-16 05:34:00,
2013-03-16 00:40:00,31.8,31.3,29.82,NNW,340,11.0,11.0,98,0.00,,,0.00,Wunderground v.1.15,2013-03-16 05:40:00,
2013-03-16 00:45:00,31.8,31.3,29.83,North,351,7.0,13.0,98,0.00,,,0.00,Wunderground v.1.15,2013-03-16 05:45:00,
2013-03-16 00:51:00,31.8,31.0,29.83,NNW,328,10.0,10.0,97,0.00,,,0.00,Wunderground v.1.15,2013-03-16 05:51:00,
2013-03-16 00:56:00,31.8,31.0,29.83,North,351,9.0,12.0,97,0.00,,,0.00,Wunderground v.1.15,2013-03-16 05:56:00,
2013-03-16 01:01:00,31.8,31.0,29.83,NNW,336,9.0,10.0,97,0.00,,,0.00,Wunderground v.1.15,2013-03-16 06:01:00,
2013-03-16 01:07:00,31.8,31.0,29.83,North,351,10.0,11.0,97,0.00,,,0.00,Wunderground v.1.15,2013-03-16 06:07:00,
2013-03-16 01:12:00,31.8,31.0,29.83,North,351,12.0,12.0,97,0.00,,,0.00,Wunderground v.1.15,2013-03-16 06:12:00,
2013-03-16 01:18:00,31.8,31.0,29.83,North,360,11.0,15.0,97,0.00,,,0.00,Wunderground v.1.15,2013-03-16 06:18:00,
2013-03-16 01:23:00,31.8,31.0,29.83,North,360,10.0,12.0,97,0.00,,,0.00,Wunderground v.1.15,2013-03-16 06:23:00,
2013-03-16 01:29:00,31.8,31.0,29.83,NNW,348,11.0,13.0,97,0.00,,,0.00,Wunderground v.1.15,2013-03-16 06:29:00,
2013-03-16 01:34:00,31.8,31.0,29.83,North,11,9.0,14.0,97,0.00,,,0.00,Wunderground v.1.15,2013-03-16 06:34:00,
2013-03-16 01:39:00,31.8,31.0,29.83,NW,309,11.0,14.0,97,0.00,,,0.00,Wunderground v.1.15,2013-03-16 06:39:00,
2013-03-16 01:44:00,31.6,30.8,29.83,North,351,14.0,14.0,97,0.00,,,0.00,Wunderground v.1.15,2013-03-16 06:44:00,
2013-03-16 01:50:00,31.3,30.5,29.83,NNW,343,13.0,13.0,97,0.00,,,0.00,Wunderground v.1.15,2013-03-16 06:50:00,
2013-03-16 01:55:00,31.2,30.4,29.83,NNW,329,12.0,13.0,97,0.00,,,0.00,Wunderground v.1.15,2013-03-16 06:55:00,
2013-03-16 02:00:00,31.0,30.2,29.85,NW,325,8.0,10.0,97,0.00,,,0.00,Wunderground v.1.15,2013-03-16 07:00:00,
2013-03-16 02:05:00,31.0,30.2,29.85,NNW,327,12.0,16.0,97,0.00,,,0.00,Wunderground v.1.15,2013-03-16 07:05:00,
2013-03-16 02:10:00,30.9,30.1,29.85,NNW,331,14.0,14.0,97,0.00,,,0.00,Wunderground v.1.15,2013-03-16 07:10:00,
2013-03-16 02:15:00,30.7,30.0,29.85,NNW,334,8.0,14.0,97,0.00,,,0.00,Wunderground v.1.15,2013-03-16 07:15:00,
2013-03-16 02:20:00,30.7,30.0,29.85,North,360,10.0,11.0,97,0.00,,,0.00,Wunderground v.1.15,2013-03-16 07:20:00,
2013-03-16 02:25:00,30.7,30.0,29.85,NNW,329,9.0,15.0,97,0.00,,,0.00,Wunderground v.1.15,2013-03-16 07:25:00,
2013-03-16 02:30:00,30.6,29.9,29.86,NNW,342,9.0,11.0,97,0.00,,,0.00,Wunderground v.1.15,2013-03-16 07:30:00,
2013-03-16 02:35:00,30.4,29.7,29.86,NNW,344,7.0,15.0,97,0.00,,,0.00,Wunderground v.1.15,2013-03-16 07:35:00,
2013-03-16 02:40:00,30.4,29.7,29.86,North,360,10.0,11.0,97,0.00,,,0.00,Wunderground v.1.15,2013-03-16 07:40:00,
2013-03-16 02:45:00,30.3,29.6,29.86,NNW,342,7.0,15.0,97,0.00,,,0.00,Wunderground v.1.15,2013-03-16 07:45:00,
2013-03-16 02:50:00,30.3,29.6,29.86,NW,313,11.0,16.0,97,0.00,,,0.00,Wunderground v.1.15,2013-03-16 07:50:00,
2013-03-16 02:55:00,30.3,29.6,29.86,NW,315,11.0,16.0,97,0.00,,,0.00,Wunderground v.1.15,2013-03-16 07:55:00,
2013-03-16 03:01:00,30.1,29.1,29.87,NNW,331,15.0,18.0,96,0.00,,,0.00,Wunderground v.1.15,2013-03-16 08:01:00,
2013-03-16 03:06:00,30.0,29.3,29.87,NW,324,11.0,18.0,97,0.00,,,0.00,Wunderground v.1.15,2013-03-16 08:06:00,
2013-03-16 03:11:00,29.8,28.8,29.87,NNW,346,11.0,14.0,96,0.00,,,0.00,Wunderground v.1.15,2013-03-16 08:11:00,
2013-03-16 03:16:00,29.7,28.7,29.88,NNW,327,9.0,16.0,96,0.00,,,0.00,Wunderground v.1.15,2013-03-16 08:16:00,
2013-03-16 03:21:00,29.7,28.7,29.88,NNW,327,11.0,16.0,96,0.00,,,0.00,Wunderground v.1.15,2013-03-16 08:21:00,
2013-03-16 03:26:00,29.5,28.5,29.88,North,9,12.0,19.0,96,0.00,,,0.00,Wunderground v.1.15,2013-03-16 08:26:00,
2013-03-16 03:31:00,29.4,28.4,29.88,NNW,344,15.0,17.0,96,0.00,,,0.00,Wunderground v.1.15,2013-03-16 08:31:00,
2013-03-16 03:36:00,29.4,28.4,29.88,NW,319,9.0,19.0,96,0.00,,,0.00,Wunderground v.1.15,2013-03-16 08:36:00,
2013-03-16 03:41:00,29.4,28.4,29.88,NNW,342,15.0,18.0,96,0.00,,,0.00,Wunderground v.1.15,2013-03-16 08:41:00,
2013-03-16 03:46:00,29.4,28.7,29.90,NNW,336,12.0,18.0,97,0.00,,,0.00,Wunderground v.1.15,2013-03-16 08:46:00,
2013-03-16 03:51:00,29.1,28.1,29.90,NNW,341,22.0,22.0,96,0.00,,,0.00,Wunderground v.1.15,2013-03-16 08:51:00,
2013-03-16 03:56:00,28.5,27.5,29.90,NNW,327,12.0,22.0,96,0.00,,,0.01,Wunderground v.1.15,2013-03-16 08:56:00,
2013-03-16 04:01:00,28.2,27.2,29.92,North,349,14.0,17.0,96,0.00,,,0.01,Wunderground v.1.15,2013-03-16 09:01:00,
2013-03-16 04:07:00,28.1,27.1,29.92,North,351,14.0,18.0,96,0.00,,,0.01,Wunderground v.1.15,2013-03-16 09:07:00,
2013-03-16 04:12:00,28.1,27.1,29.92,NW,326,11.0,13.0,96,0.00,,,0.01,Wunderground v.1.15,2013-03-16 09:12:00,
2013-03-16 04:17:00,28.2,27.2,29.92,North,360,13.0,14.0,96,0.00,,,0.01,Wunderground v.1.15,2013-03-16 09:17:00,
2013-03-16 04:22:00,28.1,27.1,29.92,North,360,11.0,14.0,96,0.00,,,0.01,Wunderground v.1.15,2013-03-16 09:22:00,
2013-03-16 04:27:00,28.1,27.1,29.92,WNW,294,8.0,20.0,96,0.00,,,0.01,Wunderground v.1.15,2013-03-16 09:27:00,
2013-03-16 04:32:00,27.9,26.9,29.92,North,360,13.0,16.0,96,0.00,,,0.01,Wunderground v.1.15,2013-03-16 09:32:00,
2013-03-16 04:37:00,27.6,26.6,29.92,NNW,327,13.0,18.0,96,0.00,,,0.01,Wunderground v.1.15,2013-03-16 09:37:00,
2013-03-16 04:42:00,27.3,26.3,29.92,NNW,347,10.0,16.0,96,0.00,,,0.01,Wunderground v.1.15,2013-03-16 09:42:00,
2013-03-16 04:47:00,27.2,26.2,29.94,NW,310,14.0,16.0,96,0.00,,,0.01,Wunderground v.1.15,2013-03-16 09:47:00,
2013-03-16 04:52:00,27.2,26.2,29.94,NNW,340,11.0,19.0,96,0.00,,,0.01,Wunderground v.1.15,2013-03-16 09:52:00,
2013-03-16 04:57:00,27.0,26.0,29.94,NW,316,13.0,19.0,96,0.00,,,0.01,Wunderground v.1.15,2013-03-16 09:57:00,
2013-03-16 05:02:00,27.0,26.0,29.95,NNW,328,11.0,16.0,96,0.00,,,0.01,Wunderground v.1.15,2013-03-16 10:02:00,
2013-03-16 05:07:00,26.6,25.6,29.95,NNW,333,10.0,20.0,96,0.00,,,0.01,Wunderground v.1.15,2013-03-16 10:07:00,
2013-03-16 05:12:00,26.7,25.7,29.95,NNW,346,11.0,17.0,96,0.00,,,0.01,Wunderground v.1.15,2013-03-16 10:12:00,
2013-03-16 05:17:00,26.7,25.7,29.96,NNW,340,11.0,17.0,96,0.00,,,0.01,Wunderground v.1.15,2013-03-16 10:17:00,
2013-03-16 05:22:00,26.7,25.7,29.96,NW,309,13.0,15.0,96,0.00,,,0.01,Wunderground v.1.15,2013-03-16 10:22:00,
2013-03-16 05:27:00,26.6,25.6,29.96,NW,324,14.0,17.0,96,0.00,,,0.01,Wunderground v.1.15,2013-03-16 10:27:00,
2013-03-16 05:32:00,26.6,25.6,29.97,NNW,331,8.0,16.0,96,0.00,,,0.01,Wunderground v.1.15,2013-03-16 10:32:00,
2013-03-16 05:37:00,26.4,25.4,29.97,NNW,348,11.0,18.0,96,0.00,,,0.01,Wunderground v.1.15,2013-03-16 10:37:00,
2013-03-16 05:42:00,26.3,25.3,29.97,NNW,338,18.0,18.0,96,0.00,,,0.01,Wunderground v.1.15,2013-03-16 10:42:00,
2013-03-16 05:47:00,26.0,25.0,29.97,NNW,334,13.0,19.0,96,0.00,,,0.01,Wunderground v.1.15,2013-03-16 10:47:00,
2013-03-16 05:52:00,25.8,24.8,29.97,NW,325,13.0,16.0,96,0.00,,,0.01,Wunderground v.1.15,2013-03-16 10:52:00,
2013-03-16 05:57:00,25.8,24.8,29.97,NW,319,13.0,19.0,96,0.00,,,0.01,Wunderground v.1.15,2013-03-16 10:57:00,
2013-03-16 06:02:00,25.6,24.6,29.98,NW,311,15.0,17.0,96,0.00,,,0.01,Wunderground v.1.15,2013-03-16 11:02:00,
2013-03-16 06:07:00,25.6,24.6,29.98,NNW,346,11.0,18.0,96,0.00,,,0.01,Wunderground v.1.15,2013-03-16 11:07:00,
2013-03-16 06:12:00,25.3,24.3,29.98,NNW,339,14.0,18.0,96,0.00,,,0.01,Wunderground v.1.15,2013-03-16 11:12:00,
2013-03-16 06:17:00,25.0,23.8,30.00,NW,317,15.0,21.0,95,0.00,,,0.01,Wunderground v.1.15,2013-03-16 11:17:00,
2013-03-16 06:22:00,24.8,23.8,30.00,NNW,346,18.0,18.0,96,0.00,,,0.01,Wunderground v.1.15,2013-03-16 11:22:00,
2013-03-16 06:27:00,24.7,23.5,30.00,NNW,333,14.0,21.0,95,0.00,,,0.01,Wunderground v.1.15,2013-03-16 11:27:00,
2013-03-16 06:32:00,24.2,23.0,30.01,NNW,348,12.0,22.0,95,0.00,,,0.01,Wunderground v.1.15,2013-03-16 11:32:00,
2013-03-16 06:37:00,24.1,22.9,30.01,NW,321,14.0,22.0,95,0.00,,,0.01,Wunderground v.1.15,2013-03-16 11:37:00,
2013-03-16 06:42:00,24.2,23.0,30.01,NW,319,12.0,18.0,95,0.00,,,0.01,Wunderground v.1.15,2013-03-16 11:42:00,
2013-03-16 06:47:00,24.1,22.9,30.01,NNW,345,15.0,18.0,95,0.00,,,0.01,Wunderground v.1.15,2013-03-16 11:47:00,
2013-03-16 06:52:00,23.8,22.3,30.01,NW,325,18.0,23.0,94,0.00,,,0.01,Wunderground v.1.15,2013-03-16 11:52:00,
2013-03-16 06:57:00,23.6,22.1,30.01,NW,323,13.0,23.0,94,0.00,,,0.01,Wunderground v.1.15,2013-03-16 11:57:00,
2013-03-16 07:02:00,23.6,22.1,30.03,North,360,17.0,19.0,94,0.00,,,0.01,Wunderground v.1.15,2013-03-16 12:02:00,
2013-03-16 07:07:00,23.5,22.0,30.03,NNW,332,15.0,25.0,94,0.00,,,0.01,Wunderground v.1.15,2013-03-16 12:07:00,
2013-03-16 07:13:00,23.5,22.0,30.03,NW,325,17.0,18.0,94,0.00,,,0.01,Wunderground v.1.15,2013-03-16 12:13:00,
2013-03-16 07:18:00,23.3,21.8,30.04,NNW,340,12.0,24.0,94,0.00,,,0.01,Wunderground v.1.15,2013-03-16 12:18:00,
2013-03-16 07:23:00,23.3,21.8,30.04,NW,325,17.0,20.0,94,0.00,,,0.01,Wunderground v.1.15,2013-03-16 12:23:00,
2013-03-16 07:28:00,23.2,21.7,30.04,NNW,340,11.0,22.0,94,0.00,,,0.01,Wunderground v.1.15,2013-03-16 12:28:00,
2013-03-16 07:33:00,23.2,21.7,30.05,NNW,339,7.0,16.0,94,0.00,,,0.01,Wunderground v.1.15,2013-03-16 12:33:00,
2013-03-16 07:38:00,23.2,21.5,30.05,North,351,11.0,18.0,93,0.00,,,0.01,Wunderground v.1.15,2013-03-16 12:38:00,
2013-03-16 07:43:00,23.0,21.3,30.05,NW,318,14.0,18.0,93,0.00,,,0.01,Wunderground v.1.15,2013-03-16 12:43:00,
2013-03-16 07:48:00,23.0,21.3,30.06,NNW,341,14.0,19.0,93,0.00,,,0.01,Wunderground v.1.15,2013-03-16 12:48:00,
2013-03-16 07:53:00,22.9,21.2,30.06,NNW,342,16.0,19.0,93,0.00,,,0.01,Wunderground v.1.15,2013-03-16 12:53:00,
2013-03-16 07:58:00,22.7,20.7,30.07,NNW,346,17.0,21.0,92,0.00,,,0.01,Wunderground v.1.15,2013-03-16 12:58:00,
2013-03-16 08:03:00,22.9,20.9,30.07,NNW,339,13.0,17.0,92,0.00,,,0.01,Wunderground v.1.15,2013-03-16 13:03:00,
2013-03-16 08:08:00,22.5,20.5,30.07,North,350,14.0,21.0,92,0.00,,,0.01,Wunderground v.1.15,2013-03-16 13:08:00,
2013-03-16 08:13:00,22.4,20.4,30.06,NNW,337,12.0,16.0,92,0.00,,,0.01,Wunderground v.1.15,2013-03-16 13:13:00,
2013-03-16 08:18:00,22.4,20.4,30.06,North,350,15.0,20.0,92,0.00,,,0.01,Wunderground v.1.15,2013-03-16 13:18:00,
2013-03-16 08:23:00,22.2,20.0,30.06,NNW,346,13.0,17.0,91,0.00,,,0.01,Wunderground v.1.15,2013-03-16 13:23:00,
2013-03-16 08:28:00,22.2,20.2,30.07,NNW,344,6.0,17.0,92,0.00,,,0.01,Wunderground v.1.15,2013-03-16 13:28:00,
2013-03-16 08:33:00,22.2,20.0,30.07,North,360,17.0,18.0,91,0.00,,,0.01,Wunderground v.1.15,2013-03-16 13:33:00,
2013-03-16 08:38:00,21.9,19.7,30.07,North,351,15.0,20.0,91,0.00,,,0.01,Wunderground v.1.15,2013-03-16 13:38:00,
2013-03-16 08:43:00,21.8,19.6,30.07,NNW,334,18.0,18.0,91,0.00,,,0.01,Wunderground v.1.15,2013-03-16 13:43:00,
2013-03-16 08:48:00,21.9,19.7,30.07,NNW,348,10.0,18.0,91,0.00,,,0.01,Wunderground v.1.15,2013-03-16 13:48:00,
2013-03-16 08:53:00,21.6,19.4,30.07,NNW,342,12.0,18.0,91,0.00,,,0.01,Wunderground v.1.15,2013-03-16 13:53:00,
2013-03-16 08:58:00,21.6,19.4,30.08,NNW,348,10.0,19.0,91,0.00,,,0.01,Wunderground v.1.15,2013-03-16 13:58:00,
2013-03-16 09:03:00,21.8,19.6,30.08,NNW,338,13.0,18.0,91,0.00,,,0.01,Wunderground v.1.15,2013-03-16 14:03:00,
2013-03-16 09:08:00,21.8,19.6,30.08,NNW,338,10.0,18.0,91,0.00,,,0.01,Wunderground v.1.15,2013-03-16 14:08:00,
2013-03-16 09:13:00,21.8,19.6,30.08,NNW,347,16.0,17.0,91,0.00,,,0.01,Wunderground v.1.15,2013-03-16 14:13:00,
2013-03-16 09:18:00,21.4,18.9,30.08,North,360,12.0,19.0,90,0.00,,,0.01,Wunderground v.1.15,2013-03-16 14:18:00,
2013-03-16 09:23:00,21.4,18.9,30.08,NNW,340,16.0,17.0,90,0.00,,,0.01,Wunderground v.1.15,2013-03-16 14:23:00,
2013-03-16 09:28:00,21.3,18.6,30.10,North,351,12.0,18.0,89,0.00,,,0.01,Wunderground v.1.15,2013-03-16 14:28:00,
2013-03-16 09:33:00,21.3,18.6,30.10,North,351,12.0,18.0,89,0.00,,,0.01,Wunderground v.1.15,2013-03-16 14:33:00,
2013-03-16 09:38:00,21.1,18.4,30.10,NNW,341,15.0,19.0,89,0.00,,,0.01,Wunderground v.1.15,2013-03-16 14:38:00,
2013-03-16 09:43:00,21.0,18.0,30.10,North,350,14.0,16.0,88,0.00,,,0.01,Wunderground v.1.15,2013-03-16 14:43:00,
2013-03-16 09:48:00,21.0,18.0,30.10,North,360,17.0,19.0,88,0.00,,,0.01,Wunderground v.1.15,2013-03-16 14:48:00,
2013-03-16 09:53:00,21.0,18.0,30.10,NNW,347,10.0,14.0,88,0.00,,,0.01,Wunderground v.1.15,2013-03-16 14:53:00,
2013-03-16 09:58:00,20.8,17.8,30.10,NNW,327,12.0,20.0,88,0.00,,,0.01,Wunderground v.1.15,2013-03-16 14:58:00,
2013-03-16 10:03:00,21.0,18.0,30.10,NNW,329,10.0,17.0,88,0.00,,,0.01,Wunderground v.1.15,2013-03-16 15:03:00,
2013-03-16 10:08:00,21.0,17.7,30.10,North,351,12.0,17.0,87,0.00,,,0.01,Wunderground v.1.15,2013-03-16 15:08:00,
2013-03-16 10:13:00,21.1,17.8,30.10,North,360,10.0,13.0,87,0.00,,,0.01,Wunderground v.1.15,2013-03-16 15:13:00,
2013-03-16 10:18:00,21.0,17.7,30.10,North,360,17.0,20.0,87,0.00,,,0.01,Wunderground v.1.15,2013-03-16 15:18:00,
2013-03-16 10:23:00,21.0,17.7,30.10,NNE,12,12.0,12.0,87,0.00,,,0.01,Wunderground v.1.15,2013-03-16 15:23:00,
2013-03-16 10:28:00,20.6,17.1,30.10,NNE,17,18.0,19.0,86,0.00,,,0.01,Wunderground v.1.15,2013-03-16 15:28:00,
2013-03-16 10:33:00,20.8,17.3,30.10,NNW,338,14.0,16.0,86,0.00,,,0.01,Wunderground v.1.15,2013-03-16 15:33:00,
2013-03-16 10:38:00,20.8,17.3,30.10,NNW,346,14.0,18.0,86,0.00,,,0.01,Wunderground v.1.15,2013-03-16 15:38:00,
2013-03-16 10:43:00,21.0,17.5,30.10,NNW,344,14.0,18.0,86,0.00,,,0.01,Wunderground v.1.15,2013-03-16 15:43:00,
2013-03-16 10:48:00,20.6,16.8,30.10,North,360,13.0,23.0,85,0.00,,,0.01,Wunderground v.1.15,2013-03-16 15:48:00,
2013-03-16 10:53:00,20.6,16.5,30.10,North,360,13.0,20.0,84,0.00,,,0.01,Wunderground v.1.15,2013-03-16 15:53:00,
2013-03-16 10:58:00,20.6,16.3,30.10,NW,323,13.0,20.0,83,0.00,,,0.01,Wunderground v.1.15,2013-03-16 15:58:00,
2013-03-16 11:03:00,20.6,16.3,30.10,North,350,12.0,18.0,83,0.00,,,0.01,Wunderground v.1.15,2013-03-16 16:03:00,
2013-03-16 11:08:00,20.5,16.2,30.10,NNW,348,16.0,24.0,83,0.00,,,0.01,Wunderground v.1.15,2013-03-16 16:08:00,
2013-03-16 11:13:00,20.8,16.5,30.10,North,360,13.0,18.0,83,0.00,,,0.01,Wunderground v.1.15,2013-03-16 16:13:00,
2013-03-16 11:18:00,20.8,16.2,30.10,NNE,15,12.0,18.0,82,0.00,,,0.01,Wunderground v.1.15,2013-03-16 16:18:00,
2013-03-16 11:23:00,21.1,16.7,30.10,North,351,10.0,18.0,83,0.00,,,0.01,Wunderground v.1.15,2013-03-16 16:23:00,
2013-03-16 11:28:00,21.3,16.7,30.10,North,10,13.0,19.0,82,0.00,,,0.01,Wunderground v.1.15,2013-03-16 16:28:00,
2013-03-16 11:33:00,21.0,16.4,30.10,NNW,346,12.0,21.0,82,0.00,,,0.01,Wunderground v.1.15,2013-03-16 16:33:00,
2013-03-16 11:38:00,21.1,16.2,30.10,North,360,22.0,22.0,81,0.00,,,0.01,Wunderground v.1.15,2013-03-16 16:38:00,
2013-03-16 11:43:00,21.1,15.9,30.11,NNE,22,13.0,20.0,80,0.00,,,0.01,Wunderground v.1.15,2013-03-16 16:43:00,
2013-03-16 11:48:00,21.4,16.2,30.11,NE,55,12.0,22.0,80,0.00,,,0.01,Wunderground v.1.15,2013-03-16 16:48:00,
2013-03-16 11:53:00,21.3,15.8,30.11,NE,37,16.0,22.0,79,0.00,,,0.01,Wunderground v.1.15,2013-03-16 16:53:00,
2013-03-16 11:58:00,21.3,15.5,30.12,NNE,25,12.0,22.0,78,0.00,,,0.01,Wunderground v.1.15,2013-03-16 16:58:00,
2013-03-16 12:03:00,21.1,15.3,30.12,North,360,12.0,21.0,78,0.00,,,0.01,Wunderground v.1.15,2013-03-16 17:03:00,
2013-03-16 12:08:00,21.4,15.9,30.12,North,9,11.0,21.0,79,0.00,,,0.01,Wunderground v.1.15,2013-03-16 17:08:00,
2013-03-16 12:13:00,21.3,16.1,30.12,NNW,344,14.0,17.0,80,0.00,,,0.01,Wunderground v.1.15,2013-03-16 17:13:00,
2013-03-16 12:18:00,21.0,15.8,30.12,North,360,14.0,17.0,80,0.00,,,0.01,Wunderground v.1.15,2013-03-16 17:18:00,
2013-03-16 12:23:00,21.0,15.8,30.12,North,360,11.0,15.0,80,0.00,,,0.01,Wunderground v.1.15,2013-03-16 17:23:00,
2013-03-16 12:29:00,20.8,15.6,30.13,NNW,343,9.0,16.0,80,0.00,,,0.01,Wunderground v.1.15,2013-03-16 17:29:00,
2013-03-16 12:34:00,20.6,15.4,30.13,North,360,9.0,14.0,80,0.00,,,0.01,Wunderground v.1.15,2013-03-16 17:34:00,
2013-03-16 12:39:00,21.1,15.6,30.13,North,351,11.0,16.0,79,0.00,,,0.01,Wunderground v.1.15,2013-03-16 17:39:00,
2013-03-16 12:44:00,21.0,15.2,30.14,NNW,333,14.0,17.0,78,0.00,,,0.01,Wunderground v.1.15,2013-03-16 17:44:00,
2013-03-16 12:49:00,21.4,16.2,30.14,NW,309,8.0,17.0,80,0.00,,,0.01,Wunderground v.1.15,2013-03-16 17:49:00,
2013-03-16 12:54:00,21.3,15.5,30.14,NNW,346,11.0,18.0,78,0.00,,,0.01,Wunderground v.1.15,2013-03-16 17:54:00,
2013-03-16 12:59:00,21.1,15.3,30.14,North,360,12.0,18.0,78,0.00,,,0.01,Wunderground v.1.15,2013-03-16 17:59:00,
2013-03-16 13:04:00,21.4,15.6,30.14,North,9,9.0,14.0,78,0.00,,,0.01,Wunderground v.1.15,2013-03-16 18:04:00,
2013-03-16 13:09:00,21.3,15.2,30.14,NNW,348,13.0,16.0,77,0.00,,,0.01,Wunderground v.1.15,2013-03-16 18:09:00,
2013-03-16 13:14:00,21.3,15.5,30.14,North,350,13.0,15.0,78,0.00,,,0.01,Wunderground v.1.15,2013-03-16 18:14:00,
2013-03-16 13:19:00,21.6,15.5,30.14,NNW,340,15.0,17.0,77,0.00,,,0.01,Wunderground v.1.15,2013-03-16 18:19:00,
2013-03-16 13:24:00,21.4,15.0,30.14,NNE,22,9.0,17.0,76,0.00,,,0.01,Wunderground v.1.15,2013-03-16 18:24:00,
2013-03-16 13:29:00,21.8,15.7,30.14,NNW,338,7.0,17.0,77,0.00,,,0.01,Wunderground v.1.15,2013-03-16 18:29:00,
2013-03-16 13:34:00,21.9,16.1,30.14,NNE,17,9.0,15.0,78,0.00,,,0.01,Wunderground v.1.15,2013-03-16 18:34:00,
2013-03-16 13:40:00,21.9,15.5,30.14,NNE,18,10.0,10.0,76,0.00,,,0.01,Wunderground v.1.15,2013-03-16 18:40:00,
2013-03-16 13:45:00,21.9,15.5,30.13,North,351,6.0,15.0,76,0.00,,,0.01,Wunderground v.1.15,2013-03-16 18:45:00,
2013-03-16 13:50:00,21.8,15.1,30.13,NNE,13,9.0,10.0,75,0.00,,,0.01,Wunderground v.1.15,2013-03-16 18:50:00,
2013-03-16 13:55:00,21.8,15.7,30.13,NNW,344,12.0,16.0,77,0.00,,,0.01,Wunderground v.1.15,2013-03-16 18:55:00,
2013-03-16 14:00:00,21.8,15.4,30.13,NNE,16,11.0,12.0,76,0.00,,,0.01,Wunderground v.1.15,2013-03-16 19:00:00,
2013-03-16 14:05:00,22.2,15.8,30.13,North,350,12.0,16.0,76,0.00,,,0.01,Wunderground v.1.15,2013-03-16 19:05:00,
2013-03-16 14:10:00,22.2,15.5,30.13,North,351,7.0,13.0,75,0.00,,,0.01,Wunderground v.1.15,2013-03-16 19:10:00,
2013-03-16 14:15:00,22.5,15.8,30.11,North,351,13.0,16.0,75,0.00,,,0.01,Wunderground v.1.15,2013-03-16 19:15:00,
2013-03-16 14:20:00,22.4,15.4,30.11,North,360,12.0,13.0,74,0.00,,,0.01,Wunderground v.1.15,2013-03-16 19:20:00,
2013-03-16 14:25:00,22.4,15.7,30.11,North,351,10.0,16.0,75,0.00,,,0.01,Wunderground v.1.15,2013-03-16 19:25:00,
2013-03-16 14:30:00,22.5,15.8,30.11,NNW,329,10.0,11.0,75,0.00,,,0.01,Wunderground v.1.15,2013-03-16 19:30:00,
2013-03-16 14:35:00,22.5,15.8,30.11,North,360,7.0,18.0,75,0.00,,,0.01,Wunderground v.1.15,2013-03-16 19:35:00,
2013-03-16 14:40:00,22.2,15.5,30.11,NE,34,13.0,16.0,75,0.00,,,0.01,Wunderground v.1.15,2013-03-16 19:40:00,
2013-03-16 14:45:00,22.2,15.8,30.10,North,360,6.0,17.0,76,0.00,,,0.01,Wunderground v.1.15,2013-03-16 19:45:00,
2013-03-16 14:50:00,21.8,15.4,30.10,NNE,13,13.0,20.0,76,0.00,,,0.01,Wunderground v.1.15,2013-03-16 19:50:00,
2013-03-16 14:55:00,22.1,15.7,30.10,North,360,11.0,20.0,76,0.00,,,0.01,Wunderground v.1.15,2013-03-16 19:55:00,
2013-03-16 15:00:00,22.2,15.8,30.09,NNW,339,10.0,12.0,76,0.00,,,0.01,Wunderground v.1.15,2013-03-16 20:00:00,
2013-03-16 15:05:00,22.4,15.7,30.09,NNW,338,13.0,17.0,75,0.00,,,0.01,Wunderground v.1.15,2013-03-16 20:05:00,
2013-03-16 15:10:00,22.2,15.5,30.09,NNW,346,8.0,14.0,75,0.00,,,0.01,Wunderground v.1.15,2013-03-16 20:10:00,
2013-03-16 15:16:00,22.4,15.7,30.09,NNE,17,11.0,16.0,75,0.00,,,0.01,Wunderground v.1.15,2013-03-16 20:16:00,
2013-03-16 15:21:00,22.2,15.5,30.09,North,360,9.0,11.0,75,0.00,,,0.01,Wunderground v.1.15,2013-03-16 20:21:00,
2013-03-16 15:26:00,22.1,15.1,30.09,North,360,5.0,15.0,74,0.00,,,0.01,Wunderground v.1.15,2013-03-16 20:26:00,
2013-03-16 15:31:00,22.1,15.4,30.11,North,349,7.0,14.0,75,0.00,,,0.01,Wunderground v.1.15,2013-03-16 20:31:00,
2013-03-16 15:36:00,21.9,15.2,30.11,North,360,5.0,16.0,75,0.00,,,0.01,Wunderground v.1.15,2013-03-16 20:36:00,
2013-03-16 15:41:00,22.1,15.7,30.11,NNW,343,8.0,13.0,76,0.00,,,0.01,Wunderground v.1.15,2013-03-16 20:41:00,
2013-03-16 15:46:00,22.2,15.2,30.11,NE,36,13.0,14.0,74,0.00,,,0.01,Wunderground v.1.15,2013-03-16 20:46:00,
2013-03-16 15:51:00,22.1,15.4,30.11,NNE,17,7.0,14.0,75,0.00,,,0.01,Wunderground v.1.15,2013-03-16 20:51:00,
2013-03-16 15:56:00,21.9,14.9,30.11,North,5,6.0,16.0,74,0.00,,,0.01,Wunderground v.1.15,2013-03-16 20:56:00,
2013-03-16 16:01:00,22.2,14.9,30.11,NNE,22,12.0,12.0,73,0.00,,,0.01,Wunderground v.1.15,2013-03-16 21:01:00,
2013-03-16 16:06:00,22.4,15.4,30.11,North,360,9.0,16.0,74,0.00,,,0.01,Wunderground v.1.15,2013-03-16 21:06:00,
2013-03-16 16:11:00,22.2,15.2,30.11,NNE,26,12.0,13.0,74,0.00,,,0.01,Wunderground v.1.15,2013-03-16 21:11:00,
2013-03-16 16:16:00,22.2,15.2,30.11,NNE,23,10.0,14.0,74,0.00,,,0.01,Wunderground v.1.15,2013-03-16 21:16:00,
2013-03-16 16:21:00,22.2,14.9,30.11,NNW,345,8.0,14.0,73,0.00,,,0.01,Wunderground v.1.15,2013-03-16 21:21:00,
2013-03-16 16:26:00,22.5,15.1,30.11,NNW,327,5.0,14.0,73,0.00,,,0.01,Wunderground v.1.15,2013-03-16 21:26:00,
2013-03-16 16:31:00,22.5,15.1,30.11,North,360,11.0,12.0,73,0.00,,,0.01,Wunderground v.1.15,2013-03-16 21:31:00,
2013-03-16 16:36:00,22.5,14.8,30.11,NNE,16,10.0,15.0,72,0.00,,,0.01,Wunderground v.1.15,2013-03-16 21:36:00,
2013-03-16 16:41:00,22.4,14.7,30.11,NNW,342,9.0,11.0,72,0.00,,,0.01,Wunderground v.1.15,2013-03-16 21:41:00,
2013-03-16 16:46:00,22.2,14.5,30.12,North,10,11.0,12.0,72,0.00,,,0.01,Wunderground v.1.15,2013-03-16 21:46:00,
2013-03-16 16:51:00,22.2,14.5,30.12,North,351,13.0,15.0,72,0.00,,,0.01,Wunderground v.1.15,2013-03-16 21:51:00,
2013-03-16 16:56:00,22.2,14.9,30.12,North,360,10.0,15.0,73,0.00,,,0.01,Wunderground v.1.15,2013-03-16 21:56:00,
2013-03-16 17:01:00,22.2,14.9,30.12,NNE,27,7.0,11.0,73,0.00,,,0.01,Wunderground v.1.15,2013-03-16 22:01:00,
2013-03-16 17:07:00,22.4,15.1,30.12,NNE,14,13.0,14.0,73,0.00,,,0.01,Wunderground v.1.15,2013-03-16 22:07:00,
2013-03-16 17:12:00,22.7,15.7,30.12,NNE,12,6.0,11.0,74,0.00,,,0.01,Wunderground v.1.15,2013-03-16 22:12:00,
2013-03-16 17:17:00,22.5,14.8,30.11,North,9,8.0,17.0,72,0.00,,,0.01,Wunderground v.1.15,2013-03-16 22:17:00,
2013-03-16 17:22:00,22.9,15.2,30.11,NE,48,7.0,13.0,72,0.00,,,0.01,Wunderground v.1.15,2013-03-16 22:22:00,
2013-03-16 17:27:00,22.9,14.9,30.11,NNE,19,6.0,13.0,71,0.00,,,0.01,Wunderground v.1.15,2013-03-16 22:27:00,
2013-03-16 17:32:00,22.5,14.8,30.13,NNE,24,12.0,12.0,72,0.00,,,0.01,Wunderground v.1.15,2013-03-16 22:32:00,
2013-03-16 17:37:00,22.2,14.2,30.13,North,351,9.0,14.0,71,0.00,,,0.01,Wunderground v.1.15,2013-03-16 22:37:00,
2013-03-16 17:42:00,22.1,14.1,30.13,NNW,342,8.0,13.0,71,0.00,,,0.01,Wunderground v.1.15,2013-03-16 22:42:00,
2013-03-16 17:47:00,22.1,14.1,30.13,North,9,7.0,14.0,71,0.00,,,0.01,Wunderground v.1.15,2013-03-16 22:47:00,
2013-03-16 17:52:00,22.1,14.1,30.13,North,360,7.0,13.0,71,0.00,,,0.01,Wunderground v.1.15,2013-03-16 22:52:00,
2013-03-16 17:57:00,22.2,14.5,30.13,North,360,7.0,13.0,72,0.00,,,0.01,Wunderground v.1.15,2013-03-16 22:57:00,
2013-03-16 18:02:00,22.2,14.2,30.13,North,351,10.0,12.0,71,0.00,,,0.01,Wunderground v.1.15,2013-03-16 23:02:00,
2013-03-16 18:07:00,22.1,14.4,30.13,North,351,7.0,15.0,72,0.00,,,0.01,Wunderground v.1.15,2013-03-16 23:07:00,
2013-03-16 18:12:00,22.1,14.8,30.13,North,360,6.0,10.0,73,0.00,,,0.01,Wunderground v.1.15,2013-03-16 23:12:00,
2013-03-16 18:17:00,21.9,14.6,30.13,North,360,10.0,14.0,73,0.00,,,0.01,Wunderground v.1.15,2013-03-16 23:17:00,
2013-03-16 18:22:00,21.8,14.2,30.13,NNW,348,13.0,13.0,72,0.00,,,0.01,Wunderground v.1.15,2013-03-16 23:22:00,
2013-03-16 18:27:00,21.4,13.8,30.13,North,9,10.0,17.0,72,0.00,,,0.01,Wunderground v.1.15,2013-03-16 23:27:00,
2013-03-16 18:32:00,21.4,14.1,30.14,NW,321,7.0,14.0,73,0.00,,,0.01,Wunderground v.1.15,2013-03-16 23:32:00,
2013-03-16 18:37:00,21.4,14.1,30.14,North,11,10.0,17.0,73,0.00,,,0.01,Wunderground v.1.15,2013-03-16 23:37:00,
2013-03-16 18:42:00,21.4,14.1,30.14,North,360,5.0,11.0,73,0.00,,,0.01,Wunderground v.1.15,2013-03-16 23:42:00,
2013-03-16 18:47:00,21.3,14.0,30.13,NNE,17,13.0,14.0,73,0.00,,,0.01,Wunderground v.1.15,2013-03-16 23:47:00,
2013-03-16 18:52:00,21.4,14.4,30.13,NNW,348,5.0,10.0,74,0.00,,,0.01,Wunderground v.1.15,2013-03-16 23:52:00,
2013-03-16 18:57:00,21.1,14.1,30.13,North,351,11.0,14.0,74,0.00,,,0.01,Wunderground v.1.15,2013-03-16 23:57:00,
2013-03-16 19:02:00,21.0,14.0,30.14,North,349,10.0,18.0,74,0.00,,,0.01,Wunderground v.1.15,2013-03-17 00:02:00,
2013-03-16 19:07:00,20.8,13.8,30.14,NNW,346,13.0,18.0,74,0.00,,,0.01,Wunderground v.1.15,2013-03-17 00:07:00,
2013-03-16 19:12:00,20.8,13.8,30.14,North,350,10.0,12.0,74,0.00,,,0.01,Wunderground v.1.15,2013-03-17 00:12:00,
2013-03-16 19:17:00,20.6,13.6,30.14,North,360,11.0,15.0,74,0.00,,,0.01,Wunderground v.1.15,2013-03-17 00:17:00,
2013-03-16 19:22:00,20.5,13.5,30.14,NNW,337,12.0,14.0,74,0.00,,,0.01,Wunderground v.1.15,2013-03-17 00:22:00,
2013-03-16 19:27:00,20.3,13.3,30.14,North,360,10.0,14.0,74,0.00,,,0.01,Wunderground v.1.15,2013-03-17 00:27:00,
2013-03-16 19:32:00,20.2,13.2,30.15,North,11,17.0,17.0,74,0.00,,,0.01,Wunderground v.1.15,2013-03-17 00:32:00,
2013-03-16 19:37:00,20.0,13.0,30.15,NNW,348,12.0,17.0,74,0.00,,,0.01,Wunderground v.1.15,2013-03-17 00:37:00,
2013-03-16 19:42:00,19.9,12.9,30.15,NNW,342,11.0,15.0,74,0.00,,,0.01,Wunderground v.1.15,2013-03-17 00:42:00,
2013-03-16 19:47:00,19.7,12.8,30.15,NNE,14,15.0,15.0,74,0.00,,,0.01,Wunderground v.1.15,2013-03-17 00:47:00,
2013-03-16 19:52:00,19.7,13.1,30.15,NNW,339,6.0,13.0,75,0.00,,,0.01,Wunderground v.1.15,2013-03-17 00:52:00,
2013-03-16 19:57:00,19.7,13.1,30.15,North,360,10.0,16.0,75,0.00,,,0.01,Wunderground v.1.15,2013-03-17 00:57:00,
2013-03-16 20:02:00,19.7,13.4,30.16,NNW,346,9.0,12.0,76,0.00,,,0.01,Wunderground v.1.15,2013-03-17 01:02:00,
2013-03-16 20:07:00,19.7,13.4,30.16,North,351,8.0,12.0,76,0.00,,,0.01,Wunderground v.1.15,2013-03-17 01:07:00,
2013-03-16 20:12:00,19.7,13.1,30.16,NNW,336,12.0,12.0,75,0.00,,,0.01,Wunderground v.1.15,2013-03-17 01:12:00,
2013-03-16 20:17:00,19.4,13.1,30.17,NNE,25,11.0,15.0,76,0.00,,,0.01,Wunderground v.1.15,2013-03-17 01:17:00,
2013-03-16 20:22:00,19.1,12.2,30.17,NNW,327,7.0,14.0,74,0.00,,,0.01,Wunderground v.1.15,2013-03-17 01:22:00,
2013-03-16 20:27:00,18.9,12.3,30.17,NNE,24,10.0,16.0,75,0.00,,,0.01,Wunderground v.1.15,2013-03-17 01:27:00,
2013-03-16 20:32:00,18.9,12.3,30.17,North,360,11.0,14.0,75,0.00,,,0.01,Wunderground v.1.15,2013-03-17 01:32:00,
2013-03-16 20:37:00,18.8,12.2,30.17,NNE,13,9.0,14.0,75,0.00,,,0.01,Wunderground v.1.15,2013-03-17 01:37:00,
2013-03-16 20:42:00,18.6,12.0,30.17,North,9,13.0,18.0,75,0.00,,,0.01,Wunderground v.1.15,2013-03-17 01:42:00,
2013-03-16 20:47:00,18.6,12.0,30.19,North,360,10.0,18.0,75,0.00,,,0.01,Wunderground v.1.15,2013-03-17 01:47:00,
2013-03-16 20:52:00,18.1,11.2,30.19,NNE,26,14.0,14.0,74,0.00,,,0.01,Wunderground v.1.15,2013-03-17 01:52:00,
2013-03-16 20:57:00,18.0,11.1,30.19,North,360,7.0,14.0,74,0.00,,,0.01,Wunderground v.1.15,2013-03-17 01:57:00,
2013-03-16 21:02:00,18.0,11.1,30.19,NNE,19,7.0,12.0,74,0.00,,,0.01,Wunderground v.1.15,2013-03-17 02:02:00,
2013-03-16 21:07:00,18.0,11.4,30.19,North,351,6.0,12.0,75,0.00,,,0.01,Wunderground v.1.15,2013-03-17 02:07:00,
2013-03-16 21:12:00,17.8,11.2,30.19,NNW,345,6.0,13.0,75,0.00,,,0.01,Wunderground v.1.15,2013-03-17 02:12:00,
2013-03-16 21:18:00,17.7,11.4,30.20,NNW,342,6.0,15.0,76,0.00,,,0.01,Wunderground v.1.15,2013-03-17 02:18:00,
2013-03-16 21:22:00,17.3,10.4,30.20,North,360,11.0,16.0,74,0.00,,,0.01,Wunderground v.1.15,2013-03-17 02:22:00,
2013-03-16 21:27:00,17.2,10.0,30.20,North,360,9.0,16.0,73,0.00,,,0.01,Wunderground v.1.15,2013-03-17 02:27:00,
2013-03-16 21:33:00,17.2,10.3,30.22,NNE,16,6.0,11.0,74,0.00,,,0.01,Wunderground v.1.15,2013-03-17 02:33:00,
2013-03-16 21:38:00,17.3,10.4,30.22,NNE,16,9.0,12.0,74,0.00,,,0.01,Wunderground v.1.15,2013-03-17 02:38:00,
2013-03-16 21:43:00,17.2,10.0,30.22,NNE,15,11.0,14.0,73,0.00,,,0.01,Wunderground v.1.15,2013-03-17 02:43:00,
2013-03-16 21:48:00,17.0,9.8,30.23,North,360,8.0,14.0,73,0.00,,,0.01,Wunderground v.1.15,2013-03-17 02:48:00,
2013-03-16 21:53:00,17.0,10.1,30.23,NNE,12,5.0,9.0,74,0.00,,,0.01,Wunderground v.1.15,2013-03-17 02:53:00,
2013-03-16 21:58:00,17.2,10.6,30.23,NNW,331,6.0,9.0,75,0.00,,,0.01,Wunderground v.1.15,2013-03-17 02:58:00,
2013-03-16 22:03:00,17.0,10.1,30.23,NNW,345,7.0,12.0,74,0.00,,,0.01,Wunderground v.1.15,2013-03-17 03:03:00,
2013-03-16 22:08:00,16.9,10.3,30.23,North,351,7.0,13.0,75,0.00,,,0.01,Wunderground v.1.15,2013-03-17 03:08:00,
2013-03-16 22:13:00,16.7,10.1,30.23,NNW,346,6.0,12.0,75,0.00,,,0.01,Wunderground v.1.15,2013-03-17 03:13:00,
2013-03-16 22:18:00,16.7,10.4,30.23,North,9,5.0,12.0,76,0.00,,,0.01,Wunderground v.1.15,2013-03-17 03:18:00,
2013-03-16 22:23:00,16.7,10.1,30.23,North,5,4.0,10.0,75,0.00,,,0.01,Wunderground v.1.15,2013-03-17 03:23:00,
2013-03-16 22:28:00,16.7,10.1,30.23,North,11,6.0,11.0,75,0.00,,,0.01,Wunderground v.1.15,2013-03-17 03:28:00,
2013-03-16 22:33:00,16.4,9.6,30.23,North,360,5.0,14.0,74,0.00,,,0.01,Wunderground v.1.15,2013-03-17 03:33:00,
2013-03-16 22:38:00,16.4,9.6,30.23,North,351,11.0,14.0,74,0.00,,,0.01,Wunderground v.1.15,2013-03-17 03:38:00,
2013-03-16 22:43:00,16.4,9.3,30.23,North,11,9.0,11.0,73,0.00,,,0.01,Wunderground v.1.15,2013-03-17 03:43:00,
2013-03-16 22:48:00,16.4,9.3,30.23,NNW,344,10.0,13.0,73,0.00,,,0.01,Wunderground v.1.15,2013-03-17 03:48:00,
2013-03-16 22:53:00,16.4,9.3,30.23,North,360,7.0,13.0,73,0.00,,,0.01,Wunderground v.1.15,2013-03-17 03:53:00,
2013-03-16 22:58:00,16.2,9.1,30.23,North,351,5.0,13.0,73,0.00,,,0.01,Wunderground v.1.15,2013-03-17 03:58:00,
2013-03-16 23:00:00,16.2,9.1,30.23,North,351,9.0,10.0,73,0.00,,,0.01,Wunderground v.1.15,2013-03-17 04:00:00,
2013-03-16 23:01:00,16.2,9.1,30.23,North,360,8.0,10.0,73,0.00,,,0.01,Wunderground v.1.15,2013-03-17 04:01:00,
2013-03-16 23:04:00,16.1,8.7,30.23,North,360,8.0,15.0,72,0.00,,,0.01,Wunderground v.1.15,2013-03-17 04:04:00,
2013-03-16 23:09:00,16.1,8.7,30.23,North,360,7.0,15.0,72,0.00,,,0.01,Wunderground v.1.15,2013-03-17 04:09:00,
2013-03-16 23:11:00,16.1,8.7,30.23,North,360,7.0,11.0,72,0.00,,,0.01,Wunderground v.1.15,2013-03-17 04:11:00,
2013-03-16 23:16:00,15.9,8.5,30.23,North,5,9.0,11.0,72,0.00,,,0.01,Wunderground v.1.15,2013-03-17 04:16:00,
2013-03-16 23:21:00,15.9,8.5,30.23,NE,43,4.0,8.0,72,0.00,,,0.01,Wunderground v.1.15,2013-03-17 04:21:00,
2013-03-16 23:27:00,15.9,8.5,30.23,North,351,4.0,8.0,72,0.00,,,0.01,Wunderground v.1.15,2013-03-17 04:27:00,
2013-03-16 23:32:00,15.9,8.8,30.23,NNE,20,6.0,8.0,73,0.00,,,0.01,Wunderground v.1.15,2013-03-17 04:32:00,
2013-03-16 23:37:00,15.9,9.1,30.23,North,360,5.0,10.0,74,0.00,,,0.01,Wunderground v.1.15,2013-03-17 04:37:00,
2013-03-16 23:42:00,15.7,8.9,30.23,NNE,15,8.0,10.0,74,0.00,,,0.01,Wunderground v.1.15,2013-03-17 04:42:00,
2013-03-16 23:47:00,15.7,8.9,30.23,North,5,5.0,10.0,74,0.00,,,0.01,Wunderground v.1.15,2013-03-17 04:47:00,
2013-03-16 23:52:00,15.7,8.6,30.23,North,9,7.0,11.0,73,0.00,,,0.01,Wunderground v.1.15,2013-03-17 04:52:00,
2013-03-16 23:57:00,15.6,8.2,30.23,NNE,24,9.0,11.0,72,0.00,,,0.01,Wunderground v.1.15,2013-03-17 04:57:00,